Warwick, RI

11:41 AM EST on February 27, 2017 (GMT -0500)
Green State

Weather History for KPVD - November, 2011

Change the Weather History Date:

Tuesday, November 29, 2011

  Actual Average Record
Temperature  
Mean Temperature 56 °F 40 °F  
Max Temperature 65 °F 48 °F 65 °F (2011)
Min Temperature 47 °F 32 °F 12 °F (1904)
Degree Days  
Heating Degree Days 9 25  
Month to date heating degree days 481 593  
Since 1 July heating degree days 824 1051  
Cooling Degree Days 0 0  
Month to date cooling degree days 0 0  
Year to date cooling degree days 921 744  
Growing Degree Days 5 (Base 50)    
Moisture  
Dew Point 53 °F    
Average Humidity 80    
Maximum Humidity 100    
Minimum Humidity 60    
Precipitation  
Precipitation 0.31 in 0.16 in 2.91 in (1963)
Month to date precipitation 4.39 4.35  
Year to date precipitation 52.37 42.80  
Snow  
Snow 0.00 in 0.10 in 4.00 in (1945)
Month to date snowfall T 1.4  
Since 1 July snowfall 2.3 1.4  
Since 1 September snowfall 2.3 1.4  
Snow Depth 0.00 in    
Sea Level Pressure  
Sea Level Pressure 29.96 in    
Wind  
Wind Speed 6 mph (SSE)    
Max Wind Speed 24 mph    
Max Gust Speed 36 mph    
Visibility 7 miles    
Events Fog , Rain    
T = Trace of Precipitation, MM = Missing Value Source: NWS Daily Summary

Daily Weather History Graph

Daily Weather History Graph

Search for Another Location

Airport or City:

Trip Planner

Search our weather history database for the weather conditions in past years. The results will help you decide how hot, cold, wet, or windy it might be!

Date:

Astronomy

Nov. 29, 2011 Rise Set
Actual Time 6:50 AM EST 4:16 PM EST
Civil Twilight 6:20 AM EST 4:47 PM EST
Nautical Twilight 5:45 AM EST 5:22 PM EST
Astronomical Twilight 5:12 AM EST 5:55 PM EST
Moon 10:34 AM EST (11/29) 9:08 PM EST (11/29)
Length of Visible Light 10h 27m
Length of Day
9h 25m
Waxing Crescent, 24% of the Moon is Illuminated
Nov 29
Waxing Crescent
Dec 2
First Quarter
Dec 10
Full
Dec 17
Last Quarter
Dec 24
New

Hourly Weather History & Observations

Time (EST) Temp. Dew Point Humidity Pressure Visibility Wind Dir Wind Speed Gust Speed Precip Events Conditions
12:51 AM 52.0 °F 50.0 °F 93% 30.13 in 10.0 mi ESE 3.5 mph - N/A   Mostly Cloudy
1:48 AM 48.2 °F 48.2 °F 100% 30.13 in 1.5 mi Calm Calm - N/A   Clear
1:51 AM 46.9 °F 46.9 °F 100% 30.14 in 1.0 mi Calm Calm - N/A   Scattered Clouds
2:39 AM 46.4 °F 46.4 °F 100% 30.13 in 2.0 mi Calm Calm - N/A   Mostly Cloudy
2:51 AM 46.9 °F 46.0 °F 97% 30.13 in 2.0 mi Calm Calm - N/A   Mostly Cloudy
3:06 AM 48.2 °F 48.2 °F 100% 30.13 in 7.0 mi Calm Calm - N/A Fog Patches of Fog
3:51 AM 48.0 °F 46.9 °F 96% 30.12 in 7.0 mi Calm Calm - N/A Fog Patches of Fog
4:51 AM 48.9 °F 46.9 °F 93% 30.12 in 6.0 mi Calm Calm - N/A Fog Patches of Fog
5:51 AM 50.0 °F 48.2 °F 94% 30.11 in 3.0 mi Calm Calm - N/A Fog Patches of Fog
6:51 AM 50.0 °F 48.0 °F 93% 30.11 in 10.0 mi Calm Calm - N/A Fog Patches of Fog
7:51 AM 52.0 °F 50.0 °F 93% 30.11 in 10.0 mi Calm Calm - N/A Fog Patches of Fog
8:51 AM 55.0 °F 53.1 °F 93% 30.09 in 7.0 mi Calm Calm - N/A Fog Patches of Fog
9:51 AM 60.1 °F 55.0 °F 83% 30.10 in 10.0 mi SSE 5.8 mph - N/A   Mostly Cloudy
10:51 AM 62.1 °F 55.0 °F 78% 30.08 in 10.0 mi SSE 8.1 mph - N/A   Mostly Cloudy
11:51 AM 62.1 °F 50.0 °F 65% 30.05 in 10.0 mi SSE 8.1 mph - N/A   Mostly Cloudy
12:51 PM 63.0 °F 48.9 °F 60% 30.03 in 10.0 mi South 4.6 mph - N/A   Mostly Cloudy
1:51 PM 64.9 °F 51.1 °F 61% 29.99 in 10.0 mi SE 11.5 mph - N/A   Mostly Cloudy
2:51 PM 64.0 °F 52.0 °F 65% 29.96 in 10.0 mi SSE 6.9 mph - N/A   Mostly Cloudy
3:51 PM 62.1 °F 55.0 °F 78% 29.95 in 10.0 mi SSE 10.4 mph - N/A   Mostly Cloudy
4:51 PM 61.0 °F 55.9 °F 83% 29.94 in 10.0 mi SSE 8.1 mph - N/A   Mostly Cloudy
5:34 PM 59.0 °F 55.4 °F 88% 29.93 in 10.0 mi SSE 10.4 mph - 0.00 in   Overcast
5:51 PM 59.0 °F 55.9 °F 90% 29.92 in 10.0 mi SSE 9.2 mph - 0.00 in   Overcast
5:58 PM 60.8 °F 55.4 °F 82% 29.92 in 10.0 mi SSE 10.4 mph - 0.00 in Rain Light Rain
6:15 PM 60.8 °F 57.2 °F 88% 29.91 in 10.0 mi SE 10.4 mph - 0.00 in Rain Light Rain
6:51 PM 59.0 °F 57.0 °F 93% 29.90 in 10.0 mi SE 11.5 mph - 0.00 in   Mostly Cloudy
7:51 PM 57.9 °F 55.9 °F 93% 29.86 in 10.0 mi Calm Calm - N/A   Mostly Cloudy
8:51 PM 62.1 °F 57.0 °F 84% 29.82 in 10.0 mi SSE 11.5 mph - N/A   Overcast
9:51 PM 62.1 °F 55.9 °F 80% 29.78 in 10.0 mi South 16.1 mph 25.3 mph N/A   Overcast
10:51 PM 62.1 °F 57.9 °F 86% 29.71 in 10.0 mi SSE 18.4 mph 27.6 mph N/A   Overcast
11:15 PM 60.8 °F 57.2 °F 88% 29.71 in 2.0 mi South 23.0 mph 35.7 mph 0.03 in Rain Heavy Rain
11:17 PM 60.8 °F 59.0 °F 94% 29.71 in 1.8 mi SSE 21.9 mph 35.7 mph 0.06 in Rain Heavy Rain
11:30 PM 60.8 °F 59.0 °F 94% 29.70 in 2.0 mi SSE 24.2 mph 34.5 mph N/A Rain Heavy Rain
11:49 PM 60.8 °F 59.0 °F 94% 29.68 in 2.0 mi SSE 19.6 mph 29.9 mph 0.23 in Rain Heavy Rain
11:50 PM 60.1 °F 59.0 °F 96% 29.69 in 2.0 mi SSE 18.4 mph 29.9 mph 0.24 in Rain Heavy Rain
11:55 PM 60.8 °F 59.0 °F 94% 29.68 in 1.8 mi South 17.3 mph 26.5 mph 0.03 in Rain Heavy Rain